Location: *
(50.6833°N, 12.0000°E)
Time: 20:05:11
(UTC+00:00)

Daily predictions for brighter satellites

Satellite Brightness Start Highest point End
(mag) Time Altitude Azimuth Time Altitude Azimuth Time Altitude Azimuth
NOSS 2-1 (E) 4.4 16:44:10 10° NW 16:49:26 81° NE 16:56:47 10° SE
Unknown 4.5 16:45:50 10° SSW 16:49:37 35° SE 16:53:24 10° ENE
Unknown 4.4 16:47:29 10° SSW 16:51:18 36° SE 16:55:07 10° ENE
Lacrosse 5 2.6 16:46:37 10° WNW 16:51:25 41° N 16:56:13 10° ENE
H-2A R/B 4.0 16:49:48 10° ENE 16:51:26 11° NE 16:53:03 10° NNE
Cosmos 1825 Rocket 3.6 16:49:34 10° N 16:53:55 62° ENE 16:58:15 10° SSE
Cosmos 1733 3.9 16:50:28 10° SSW 16:54:17 60° WNW 16:58:07 10° N
Unknown 4.4 16:50:45 10° SSW 16:54:35 38° SE 16:58:26 10° ENE
Cosmos 1953 Rocket 3.9 16:50:47 10° N 16:55:02 45° ENE 16:59:12 10° SSE
Unknown 4.3 16:52:25 10° SSW 16:56:17 38° SE 17:00:09 10° ENE
Unknown 4.3 16:54:04 10° SW 16:57:56 39° SE 17:01:49 10° ENE
Cosmos 371 Rocket 3.9 16:54:16 10° SW 16:59:02 59° WNW 17:03:48 10° NNE
Unknown 4.3 16:55:43 10° SW 16:59:36 40° SE 17:03:30 10° ENE
ATLAS 5 CENTAUR R/B 1.8 16:56:39 10° SSW 17:00:48 51° SE 17:05:28 10° NE
Cosmos 304 Rocket 3.7 16:57:55 10° SSW 17:02:42 74° ESE 17:07:32 10° NNE
Unknown 4.2 16:58:59 10° SW 17:02:54 42° SSE 17:06:49 10° ENE
COBE Rocket 4.1 16:58:43 10° NNE 17:03:52 58° E 17:08:55 10° S
Unknown 4.1 17:00:36 10° SW 17:04:33 44° SSE 17:08:26 10° ENE
Unknown 4.1 17:00:50 10° SW 17:04:49 47° SSE 17:08:44 10° ENE
Unknown 4.0 17:02:25 10° SW 17:06:25 48° SSE 17:10:16 11° ENE
BREEZE-M DEB (TANK) 3.5 17:02:28 10° W 17:06:29 84° SSW 17:16:02 10° ESE
Unknown 4.1 17:05:29 10° SW 17:09:26 46° SSE 17:13:08 12° ENE
Cosmos 1606 Rocket 3.6 17:07:09 10° S 17:11:26 55° E 17:15:43 10° NNE
Meteor 2-12 Rocket 4.5 17:06:34 10° N 17:12:46 86° E 17:18:56 10° S
Unknown 4.0 17:08:47 10° SW 17:12:47 48° SSE 17:16:21 13° ENE
Unknown 2.4 17:11:16 10° WNW 17:13:55 87° NNE 17:16:06 14° ESE
Unknown 4.0 17:10:30 10° SW 17:14:30 49° SSE 17:18:01 13° ENE
Cosmos 2285 Rocket 4.2 17:09:03 10° NNW 17:15:31 81° WSW 17:21:56 10° SSE
Unknown 4.0 17:12:05 10° SW 17:16:06 50° SSE 17:19:33 13° ENE
Cosmos 2263 Rocket 3.4 17:11:00 10° WSW 17:16:23 43° NW 17:21:46 10° NNE
Cosmos 1758 Rocket 3.9 17:12:16 10° NNW 17:16:43 74° W 17:21:10 10° S
CSL-04 Rocket 3.7 17:11:38 10° SSE 17:17:09 69° ENE 17:22:38 10° NNW
Unknown 3.9 17:13:47 10° SW 17:17:48 52° SSE 17:21:12 14° ENE
NOAA 11 4.5 17:14:55 10° SE 17:20:04 46° ENE 17:25:15 10° N
Unknown 3.7 17:17:43 10° SW 17:21:45 59° SSE 17:25:00 15° ENE
SL-4 R/B 3.1 17:18:21 10° W 17:22:00 36° SSW 17:25:22 10° SE
Envisat 3.3 17:18:10 10° S 17:23:14 72° WSW 17:28:21 10° NNW
Cosmos 1271 Rocket 2.9 17:20:03 10° NNW 17:24:01 83° W 17:28:00 10° S
Gbstr 26 Del rocket 4.0 17:18:24 10° W 17:24:15 82° N 17:30:22 15° E
Unknown 3.8 17:20:21 10° SW 17:24:24 56° SSE 17:27:34 16° ENE
Cosmos 1932 4.5 17:18:59 10° SSW 17:25:15 74° SE 17:31:40 10° NE
CZ-2D R/B 3.6 17:21:53 10° SE 17:25:31 42° ENE 17:29:12 10° N
Unknown 3.8 17:22:00 10° SW 17:26:04 57° SSE 17:29:10 17° ENE
Unknown 3.8 17:23:40 10° SW 17:27:44 59° SSE 17:30:47 17° ENE
EO 1 Delta rocket 3.9 17:24:46 10° SSE 17:29:17 58° ENE 17:34:03 10° N
Unknown 3.7 17:25:16 10° SW 17:29:21 60° SSE 17:32:19 18° ENE
Cosmos 1833 Rocket 3.3 17:24:26 10° NNW 17:29:41 38° NE 17:33:53 15° ESE
Unknown 3.7 17:26:56 10° SW 17:31:01 61° SSE 17:33:55 18° ENE
SKYMED 2 3.5 17:26:41 10° NNE 17:31:03 80° ESE 17:35:23 10° SSW
Cosmos 1626 4.3 17:28:41 10° NNW 17:31:59 30° W 17:35:16 10° SSW
Unknown 3.5 17:29:20 10° WSW 17:33:22 76° SSE 17:36:13 19° ENE
Unknown 3.7 17:30:18 10° SW 17:34:23 63° SSE 17:37:11 20° ENE
Starlink (trailer) 3.7 17:31:56 10° SW 17:36:02 65° SSE 17:38:45 20° ENE
ARGOS 4.4 17:34:15 17° E 17:36:28 22° NE 17:40:31 10° N
Unknown 3.7 17:33:35 10° SW 17:37:41 66° SSE 17:40:22 21° ENE
Cosmos 1356 3.8 17:35:09 10° SSE 17:38:23 40° E 17:41:39 10° NNE
YAOGAN 1 2.6 17:34:39 10° SSE 17:38:59 82° WSW 17:43:21 10° NNW
Unknown 3.6 17:35:12 10° SW 17:39:19 67° SSE 17:41:55 22° ENE
Cosmos 1703 3.2 17:35:39 10° N 17:39:36 61° ENE 17:43:28 10° SSE
Cosmos 1953 2.8 17:35:51 10° SSW 17:39:53 65° WNW 17:43:58 10° N
ADEOS Rocket 4.4 17:34:30 10° NE 17:40:26 23° E 17:46:07 10° SE
Cosmos 1726 2.2 17:38:10 10° S 17:41:44 51° E 17:45:18 10° NNE
Cosmos 1461 3.6 17:40:13 10° NNW 17:43:57 34° NE 17:45:38 24° E
CZ-4C R/B 4.1 17:37:13 10° NW 17:43:58 44° WSW 17:51:32 10° S
SJ-6B 4.1 17:44:01 20° ENE 17:44:04 20° ENE 17:46:55 10° NNE
FALCON 9 DEB 3.5 17:41:25 10° WNW 17:44:50 57° N 17:46:30 27° ENE
COSMOS 2406 3.2 17:39:53 10° NNW 17:45:43 83° ENE 17:51:29 10° SSE
Unknown 3.6 17:41:48 10° WSW 17:45:55 73° SSE 17:48:17 25° ENE
Unknown 3.6 17:41:51 10° WSW 17:45:58 72° SSE 17:48:19 25° ENE
Unknown 3.6 17:42:38 10° WSW 17:46:46 73° SSE 17:49:06 25° ENE
Cosmos 2082 Rocket 2.9 17:41:54 10° NNW 17:47:14 37° NE 17:50:13 22° E
Unknown 3.5 17:43:59 10° WNW 17:47:28 57° N 17:49:05 28° ENE
Cosmos 1076 Rocket 4.5 17:45:22 10° N 17:49:10 28° ENE 17:50:06 26° E
Unknown 3.5 17:46:42 10° WSW 17:50:50 76° SSE 17:52:59 27° ENE
Unknown 3.6 17:46:49 10° WSW 17:50:57 76° SSE 17:53:07 27° ENE
ASTEX 1 3.6 17:46:49 10° N 17:51:45 73° W 17:56:41 10° SSW
IRS-1A Rocket 4.2 17:46:58 10° SSE 17:52:23 63° ENE 17:57:50 10° N
Unknown 3.5 17:48:34 10° WSW 17:52:43 79° SSE 17:54:50 28° ENE
MOS 1 4.4 17:48:14 10° SE 17:53:41 52° ENE 17:59:10 10° N
Cosmos 1726 Rocket 3.8 17:49:20 10° SSW 17:53:43 71° WNW 17:58:07 10° N
Unknown 3.5 17:51:53 10° WSW 17:56:01 82° SSE 17:58:00 30° ENE
Meteor 1-11 4.2 17:50:21 10° N 17:56:08 80° ENE 18:01:56 10° SSE
Unknown 3.5 17:52:26 10° WSW 17:56:35 81° SSE 17:58:32 30° ENE
Unknown 3.3 17:53:48 10° WNW 17:57:11 60° N 17:58:15 38° ENE
Cosmos 1242 Rocket 3.0 17:53:31 10° NNW 17:57:12 64° W 18:00:50 10° S
Unknown 3.5 17:53:28 10° WSW 17:57:38 81° SSE 17:59:32 31° ENE
Cosmos 1339 Rocket 4.4 17:52:21 10° S 17:58:17 59° E 18:04:19 10° NNE
Unknown 3.5 17:56:41 10° WSW 18:00:50 82° SSE 18:02:36 33° ENE
Shenzhou-11 Module 4.0 17:59:27 10° SSW 18:00:58 15° S 18:00:58 15° S
Unknown 2.8 17:59:24 10° WNW 18:02:32 86° SSW 18:03:09 54° ESE
Cosmos 2058 Rocket 3.1 17:59:14 10° SSW 18:03:36 83° W 18:08:00 10° N
Unknown 3.5 18:00:05 10° WSW 18:04:15 86° SSE 18:05:54 36° ENE
Cosmos 1939 Rocket 2.8 18:00:22 10° SSE 18:04:20 84° WSW 18:08:24 10° NNW
Ariane Rocket 2.9 18:00:40 10° SSE 18:05:46 87° ENE 18:10:55 10° NNW
Unknown 3.5 18:01:45 10° WSW 18:05:55 87° SSE 18:07:29 37° ENE
Falcon 9 debris 3.3 18:03:32 10° WNW 18:06:58 62° N 18:07:41 48° ENE
Cosmos 2228 4.0 18:02:48 10° SSW 18:07:03 49° WNW 18:11:19 10° N
FREGAT/IRIS 4.0 18:08:35 24° NNE 18:08:35 24° NNE 18:10:00 10° N
Unknown 3.5 18:03:26 10° WSW 18:07:36 89° SSE 18:09:07 38° ENE
Cosmos 1605 Rocket 3.9 18:01:21 10° N 18:07:37 89° E 18:13:46 10° S
Cosmos 1459 Rocket 4.4 18:02:55 10° N 18:08:42 40° ENE 18:11:19 28° ESE
Unknown 3.5 18:05:06 10° WSW 18:09:15 90° SSE 18:10:43 40° ENE
Lacrosse 5 rocket 3.2 18:06:34 10° WNW 18:09:38 24° SW 18:12:50 10° S
Unknown 3.6 18:07:07 10° W 18:10:50 59° N 18:11:49 42° NE
ATLAS CENTAUR R/B 3.9 18:08:11 10° NNW 18:10:50 15° N 18:13:14 11° NNE
SPOT 3 Rocket 3.9 18:09:12 31° ESE 18:11:05 43° ENE 18:16:00 10° N
Unknown 3.4 18:07:37 10° WNW 18:11:06 61° N 18:11:44 50° NE
Unknown 3.5 18:08:23 10° WSW 18:12:32 88° NNW 18:13:52 43° ENE
Unknown 3.6 18:08:51 10° W 18:12:44 66° N 18:13:52 42° NE
Unknown 3.6 18:09:55 10° W 18:13:44 62° N 18:14:45 43° NE
Unknown 3.5 18:10:08 10° WSW 18:14:17 87° NNW 18:15:33 44° ENE
Cosmos 1844 Rocket 3.2 18:09:09 10° SW 18:14:44 60° NW 18:20:21 10° NNE
Meteor 1-16 Rocket 4.5 18:10:00 10° SSW 18:15:32 68° WNW 18:20:58 10° N
Unknown 3.5 18:11:45 10° WSW 18:15:54 86° NNW 18:17:07 46° ENE
Meteor 2-10 4.0 18:11:19 10° SSW 18:16:25 81° WNW 18:21:29 10° N
Cosmos 1727 Rocket 4.0 18:10:46 10° S 18:16:46 57° E 18:22:48 10° NNE
Unknown 3.5 18:13:21 10° WSW 18:17:31 86° NNW 18:18:38 48° ENE
Unknown 3.5 18:13:56 10° WSW 18:18:05 85° NNW 18:19:12 48° ENE
Cosmos 921 Rocket 3.5 18:14:24 10° SSW 18:18:52 65° WNW 18:23:20 10° NNE
COSMO-SKYMED 1 4.1 18:15:03 10° N 18:19:03 37° WNW 18:23:02 10° SW
Cosmos 1802 Rocket 4.4 18:13:58 10° N 18:20:02 41° ENE 18:21:55 34° ESE
Resurs 01 Rocket 3.2 18:21:45 20° NE 18:21:45 20° NE 18:24:01 10° N
Unknown 3.5 18:16:32 10° WSW 18:20:42 86° NNW 18:21:40 52° ENE
Cosmos 1908 3.2 18:17:27 10° SSW 18:21:22 83° W 18:25:18 10° N
Cosmos 1777 Rocket 4.1 18:18:17 10° NNW 18:23:32 73° WSW 18:27:46 15° SSE
CZ-4 R/B 3.9 18:20:13 10° SSW 18:23:36 24° W 18:27:02 10° NW
Unknown 3.5 18:19:54 10° WSW 18:24:04 84° NNW 18:24:54 56° ENE
Unknown 3.5 18:21:31 10° WSW 18:25:40 83° NNW 18:26:26 58° ENE
Unknown 3.6 18:23:26 10° WSW 18:27:36 79° NNW 18:28:19 59° NE
Unknown 3.6 18:24:50 10° WSW 18:29:00 81° NNW 18:29:38 62° NE
Cosmos 2173 Rocket 4.0 18:23:22 10° N 18:29:35 55° ENE 18:31:56 36° SE
H-2A R/B 2.2 18:28:31 44° ESE 18:29:39 52° ENE 18:34:54 10° N
Cosmos 2084 3.9 18:25:56 10° WSW 18:30:26 61° NW 18:32:39 28° NNE
Unknown 3.6 18:26:32 10° WSW 18:30:42 80° NNW 18:31:16 64° NE
Cosmos 2278 Rocket 2.2 18:25:10 10° S 18:30:42 56° ESE 18:34:56 17° NE
SJ 16-02 3.0 18:30:17 10° N 18:32:32 20° NNE 18:32:32 20° NNE
Unknown 3.6 18:29:51 10° WSW 18:34:00 78° NNW 18:34:27 68° NE
Cosmos 1844 4.4 18:28:45 10° SW 18:34:22 55° NW 18:40:04 10° NNE
HJ-1C 4.3 18:33:05 29° SSW 18:34:29 49° W 18:37:47 10° NNW
NOSS 3-3 (A) 4.4 18:27:29 10° NW 18:34:48 72° NE 18:38:16 37° ESE
NOSS 3-3 (C) 4.4 18:27:36 10° NW 18:34:53 71° NE 18:38:20 37° ESE
Lacrosse 5 1.8 18:29:53 10° WNW 18:34:58 73° NNE 18:35:56 56° E
Unknown 3.6 18:31:33 10° WSW 18:35:43 77° NNW 18:36:05 69° NE
Unknown 3.6 18:33:13 10° WSW 18:37:22 76° NNW 18:37:40 71° NNE
Unknown 3.6 18:34:54 10° W 18:39:03 76° NNW 18:39:17 72° NNE
Unknown 3.6 18:38:13 10° W 18:42:22 74° NNW 18:42:28 73° N
Unknown 3.6 18:39:53 10° W 18:44:02 73° NNW 18:44:05 72° N
Unknown 3.7 18:40:12 10° W 18:44:21 71° NNW 18:44:23 70° N
Cosmos 292 Rocket 4.1 18:40:39 10° SW 18:45:22 64° WNW 18:50:07 10° NNE
ATLAS 5 CENTAUR R/B 3.1 18:41:28 10° W 18:45:38 36° NNW 18:48:44 18° NNE
Cosmos 1725 Rocket 4.4 18:39:58 10° N 18:45:48 42° ENE 18:45:48 42° ENE
Unknown 3.7 18:41:48 10° W 18:45:56 70° NNW 18:45:56 70° NNW
CZ-2C R/B 3.5 18:45:55 49° ENE 18:46:11 49° ENE 18:51:46 10° N
Cosmos 2100 Rocket 3.8 18:40:55 10° N 18:47:10 76° E 18:49:40 38° SSE
Unknown 3.8 18:44:49 10° W 18:48:47 70° NNW 18:48:47 70° NNW
Cosmos 967 Rocket 4.4 18:45:22 10° NW 18:51:52 87° NE 18:53:41 51° SE
Cosmos 1000 Rocket 4.4 18:51:36 54° ESE 18:52:17 58° E 18:58:24 10° NNE
Unknown 3.9 18:48:10 10° W 18:52:00 66° NW 18:52:00 66° NW
Cosmos 2058 3.4 18:48:12 10° N 18:51:27 52° N 18:51:27 52° N
Unknown 3.9 18:49:54 10° W 18:53:41 64° NW 18:53:41 64° NW
Unknown 4.0 18:51:30 10° W 18:55:12 62° NW 18:55:12 62° NW
Unknown 4.0 18:53:14 10° W 18:56:51 60° NW 18:56:51 60° NW
Unknown 4.2 18:57:07 10° W 19:00:29 53° WNW 19:00:29 53° WNW
Unknown 4.3 18:59:52 10° W 19:03:13 52° WNW 19:03:13 52° WNW
Cosmos 1898 Rocket 3.8 18:59:38 10° NNW 19:04:08 55° NNE 19:04:08 55° NNE
Unknown 4.4 19:01:32 10° W 19:04:49 50° WNW 19:04:49 50° WNW
Cosmos 1812 Rocket 4.0 19:07:06 62° W 19:07:16 62° WNW 19:11:43 10° N
Unknown 4.5 19:03:13 10° W 19:06:26 49° WNW 19:06:26 49° WNW
Gbstr 26 Del rocket 4.3 19:05:15 10° WNW 19:11:38 66° SSW 19:12:54 56° SSE
Cosmos 2016 Rocket 3.8 19:06:33 10° N 19:12:50 77° E 19:13:09 75° ESE
Cosmos 1833 Rocket 3.5 19:08:23 10° NW 19:13:45 47° WSW 19:15:36 35° SSW
ARGOS 3.2 19:15:46 72° SSW 19:16:11 77° WSW 19:21:39 10° NNW
SL-08 R/B 4.4 19:10:56 10° N 19:16:36 67° NE 19:16:36 67° NE
SJ-6B 4.4 19:19:40 32° NW 19:19:40 32° NW 19:22:08 10° NNW
Cosmos 2061 Rocket 3.8 19:13:08 10° N 19:19:27 88° E 19:19:54 78° SSE
Cosmos 1461 4.4 19:19:16 10° NW 19:22:03 33° W 19:22:03 33° W
ADEOS Rocket 3.4 19:19:02 10° NNE 19:26:55 89° ESE 19:34:20 10° SSW
Cosmos 2082 Rocket 2.8 19:26:00 10° NW 19:31:31 50° WSW 19:32:05 48° SW
ATLAS CENTAUR R/B 4.0 19:47:45 10° NNW 19:49:25 17° N 19:49:25 17° N
USA 238 DEB 4.4 19:49:00 10° SW 19:53:10 42° SW 19:53:10 42° SW
USA 238 4.4 19:49:07 10° SW 19:53:11 41° SW 19:53:11 41° SW
Resurs 01 Rocket 3.8 19:59:19 23° NNW 19:59:19 23° NNW 20:01:05 10° NNW
H-2A R/B 3.8 20:09:09 28° W 20:09:22 28° W 20:13:57 10° NNW
SJ 16-02 4.0 20:08:25 10° NNW 20:09:32 17° NW 20:09:32 17° NW
Cosmos 2278 Rocket 3.7 20:09:59 10° WSW 20:15:06 33° NW 20:16:57 27° N
Lacrosse 5 4.1 20:13:09 10° WNW 20:15:08 21° W 20:15:08 21° W
ATLAS 5 CENTAUR R/B 4.3 20:28:02 10° NW 20:30:17 18° NNW 20:30:17 18° NNW
